REDDEN DE US current weather conditions

sailwx.info

Wind from 182 at 4 knots gusting 8

Air temperature 29.4° C
Dewpoint 24.5° C

Last reported at 2020-Jul-07 17:08 UTC.
Time now 2020-Jul-07 22:49 UTC

Location: N 38°45' W 075°25'.
View on Google Maps.

See reports from other nearby stations

  
Tides and Currents Weather Stations Pressure Air Temp Water Temp Dewpoint Dewpoint Depression Visibility Wind Speed Wind Dir Waves Ship Positions
date/time (UTC)wind fromknots sea level pressurealtimeterstation pressurevisibilityair tempwater tempwave heightnotes
2020-Jul-07 17:08 182 4 gusting 8 29.4
2020-Jul-07 13:08 140 2 gusting 5 27.2
2020-Jul-07 12:08 123 0 gusting 3 22.8
2020-Jul-07 11:08 111 0 gusting 2 21.1
2020-Jul-07 10:08 076 0 gusting 3 20.0
2020-Jul-07 09:08 110 0 gusting 2 20.0
2020-Jul-07 08:08 138 1 gusting 3 20.6
2020-Jul-07 07:08 111 1 gusting 6 20.6
2020-Jul-07 06:08 267 3 gusting 8 21.1
2020-Jul-07 05:08 248 3 gusting 6 20.6
2020-Jul-07 04:08 285 1 gusting 5 20.6
2020-Jul-07 03:08 154 4 gusting 6 20.6
2020-Jul-07 02:08 139 3 gusting 19 20.6
2020-Jul-07 01:08 001 5 gusting 11 23.3
2020-Jul-07 00:08 130 6 gusting 13 23.3
2020-Jul-06 23:08 132 6 gusting 16 25.0
2020-Jul-06 22:08 237 2 gusting 7 32.8
2020-Jul-06 21:08 265 4 gusting 12 33.3
2020-Jul-06 20:08 263 6 gusting 13 33.9
2020-Jul-06 19:08 248 5 gusting 12 33.9
2020-Jul-06 18:08 256 5 gusting 10 34.4
2020-Jul-06 17:08 253 4 gusting 11 33.3
2020-Jul-06 16:08 248 3 gusting 8 33.9
2020-Jul-06 15:08 248 3 gusting 8 32.2
2020-Jul-06 14:08 248 3 gusting 7 30.6
2020-Jul-06 13:08 219 2 gusting 6 29.4
2020-Jul-06 12:08 232 2 gusting 4 26.1
2020-Jul-06 11:08 138 0 gusting 1 22.2
2020-Jul-06 10:08 126 0 gusting 1 20.6
2020-Jul-06 09:08 20.0
2020-Jul-06 08:08 20.6
2020-Jul-06 07:08 20.6
2020-Jul-06 06:08 20.6
2020-Jul-06 05:08 21.1
2020-Jul-06 04:08 21.7
2020-Jul-06 03:08 112 0 gusting 3 22.8
2020-Jul-06 02:08 127 0 gusting 2 23.3
2020-Jul-06 01:08 149 1 gusting 3 24.4
2020-Jul-06 00:08 262 2 gusting 6 27.8
2020-Jul-05 23:08 255 1 gusting 5 28.3
2020-Jul-05 22:08 234 1 gusting 6 29.4